Location: Cussy
(47.0410°N, 4.6412°E)
Time: 03:19:29
(UTC+00:00)

IRIDIUM 33 DEB - Visible Passes

Search period start: 15 June 2021 00:00
Search period end: 25 June 2021 00:00
Orbit: 692 x 726 km, 86.3° (Epoch: 14 June)

Date Brightness Start Highest point End Pass type
(mag) Time Alt. Az. Time Alt. Az. Time Alt. Az.
15 Jun ? 02:38:57 10° ESE 02:41:51 16° ENE 02:44:45 10° NE visible
17 Jun ? 02:30:23 10° ESE 02:33:28 17° ENE 02:36:34 10° NE visible
19 Jun ? 02:21:49 10° ESE 02:25:04 18° ENE 02:28:20 10° NE visible
20 Jun ? 03:05:23 10° SSE 03:10:05 51° E 03:14:52 10° NNE visible
21 Jun ? 02:13:15 10° ESE 02:16:41 19° ENE 02:20:07 10° NE visible
22 Jun ? 02:56:57 10° SSE 03:01:42 54° E 03:06:32 10° NNE visible
23 Jun ? 02:04:43 10° SE 02:08:16 20° E 02:11:51 10° NNE visible
24 Jun ? 02:48:32 10° SSE 02:53:20 58° E 02:58:12 10° N visible
